Location: Casco Volunteer Fire Department
(44.5576°N, 87.6146°W)
Time: 05:16:29
(UTC+00:00)

SJ-12 - Pass Details

Date: 22 January 2026
Orbit: 515 x 525 km, 97.8° (Epoch: 7 February)

Event Time Altitude Azimuth Distance (km) Brightness Sun altitude
Rises 23:36:55 0° 167° (SSE) 2,646 7.4 -9.2°
Reaches altitude 10° 23:39:01 10° 168° (SSE) 1,763 6.5 -9.6°
Maximum altitude 23:42:49 83° 255° (WSW) 537 3.8 -10.2°
Drops below altitude 10° 23:46:40 10° 346° (NNW) 1,778 6.4 -10.9°
Sets 23:48:47 0° 347° (NNW) 2,671 7.3 -11.2°
